FW6381 Weather Reports


Display with metric or nautical units.
time (UTC)temp
F
wind
direction
speed
MPH
gust
MPH
rain 1hr
in
rain 24hr
in
rain mn
in
humidity
%
barometer
mb
20260506051213 48 0 0.0 0.0 0.14 0.90 0.15 99 1009.6
20260506050714 48 0 0.0 0.0 0.14 0.89 0.14 99 1009.5
20260506045003 48 58 1.0 5.0 0.10 0.84 0.09 99 1009.2
20260506044503 48 58 2.0 5.0 0.09 0.83 0.08 98 1009.2
20260506044003 48 49 3.0 6.0 0.08 0.82 0.07 98 1009.0
20260506043503 49 33 3.0 6.0 0.07 0.80 0.06 99 1009.1
20260506043213 49 19 3.0 6.0 0.06 0.79 0.05 99 1009.1
20260506042503 49 353 2.0 5.0 0.05 0.78 0.03 99 1008.9
20260506042003 49 345 1.0 4.0 0.03 0.77 0.02 99 1008.8
20260506041503 49 341 0.0 4.0 0.03 0.76 0.01 99 1008.9
20260506041214 49 338 0.0 3.0 0.03 0.76 0.01 98 1008.9
20260506040503 49 0 0.0 0.0 0.03 0.75 0.00 98 1009.1
20260506040005 49 0 0.0 0.0 0.03 0.75 0.00 98 1008.9
20260506035503 49 331 1.0 3.0 0.05 0.75 0.75 98 1008.7
20260506035005 49 331 1.0 4.0 0.05 0.74 0.74 98 1008.9
20260506034503 49 331 1.0 4.0 0.05 0.74 0.74 98 1008.9
20260506034214 49 331 1.0 4.0 0.06 0.74 0.74 98 1008.9
20260506033505 49 331 1.0 4.0 0.07 0.74 0.74 98 1008.8
20260506033004 49 331 0.0 4.0 0.07 0.74 0.74 98 1008.8
20260506032503 49 330 0.0 3.0 0.08 0.74 0.74 98 1009.2
20260506032003 49 330 0.0 3.0 0.08 0.74 0.74 98 1009.2
20260506031504 49 0 0.0 0.0 0.07 0.72 0.72 98 1009.0
20260506031214 49 0 0.0 0.0 0.07 0.72 0.72 98 1009.3
20260506030503 49 0 0.0 0.0 0.07 0.71 0.71 98 1009.2
20260506030003 49 0 0.0 0.0 0.07 0.71 0.71 98 1009.2
20260506025503 49 0 0.0 0.0 0.06 0.70 0.70 98 1009.1
20260506025214 49 0 0.0 0.0 0.05 0.69 0.70 98 1009.2
20260506024503 49 0 0.0 0.0 0.05 0.69 0.69 98 1009.5
20260506024003 49 329 0.0 1.0 0.03 0.68 0.68 98 1009.6
20260506023504 49 329 0.0 1.0 0.02 0.67 0.67 98 1009.5
20260506023003 49 0 0.0 0.0 0.02 0.68 0.67 98 1009.4
20260506022503 49 0 0.0 0.0 0.01 0.67 0.66 98 1009.5
20260506022005 49 0 0.0 0.0 0.02 0.67 0.66 98 1009.5
20260506021503 48 0 0.0 0.0 0.02 0.67 0.66 98 1009.5
20260506021003 49 0 0.0 0.0 0.02 0.68 0.66 98 1009.5
20260506020505 48 329 0.0 1.0 0.01 0.67 0.64 98 1009.4
20260506020003 49 329 0.0 1.0 0.02 0.67 0.64 98 1009.3
20260506015503 49 329 0.0 1.0 0.02 0.67 0.64 98 1009.4
20260506015005 49 329 0.0 3.0 0.03 0.67 0.64 98 1009.6
20260506014712 49 329 0.0 3.0 0.03 0.67 0.64 98 1009.5
20260506014003 49 329 0.0 3.0 0.05 0.67 0.64 98 1009.8
20260506013504 49 329 1.0 4.0 0.07 0.67 0.64 98 1009.6
20260506013003 49 329 1.0 4.0 0.08 0.67 0.64 98 1009.8
20260506012503 49 329 1.0 3.0 0.09 0.67 0.64 96 1009.8
20260506012215 49 329 1.0 3.0 0.10 0.67 0.64 96 1009.6
20260506011505 49 329 0.0 3.0 0.12 0.66 0.63 96 1009.4
20260506011003 49 329 0.0 3.0 0.13 0.66 0.63 96 1009.4
20260506010503 49 329 0.0 3.0 0.14 0.66 0.63 96 1009.3
20260506010005 49 329 1.0 3.0 0.14 0.64 0.62 96 1009.3
20260506005505 49 329 1.0 3.0 0.16 0.64 0.62 96 1009.4
20260506005213 49 329 1.0 4.0 0.17 0.64 0.62 96 1009.4
20260506004503 49 330 2.0 6.0 0.17 0.62 0.60 96 1009.6
20260506004213 49 332 2.0 6.0 0.18 0.62 0.60 96 1009.5
20260506003505 49 339 0.0 4.0 0.17 0.60 0.57 96 1009.5
20260506003003 49 0 0.0 0.0 0.17 0.59 0.56 96 1009.5
20260506002505 49 338 0.0 0.0 0.16 0.57 0.55 96 1009.3
20260506002003 49 338 0.0 4.0 0.16 0.55 0.53 96 1009.3
20260506001505 49 338 0.0 4.0 0.15 0.54 0.52 96 1009.3
20260506001003 49 0 0.0 0.0 0.15 0.53 0.51 96 1009.0
20260506000503 49 0 0.0 0.0 0.15 0.52 0.49 96 1009.1
20260506000003 49 338 0.0 3.0 0.15 0.51 0.48 96 1009.1
20260505235504 49 338 1.0 3.0 0.14 0.48 0.46 95 1009.0
20260505235004 49 338 1.0 4.0 0.12 0.46 0.44 95 1009.2
20260505234503 49 338 1.0 4.0 0.12 0.45 0.43 95 1009.0
20260505234003 49 338 1.0 5.0 0.10 0.44 0.41 95 1008.8
20260505233714 49 338 2.0 5.0 0.12 0.44 0.41 95 1008.8
20260505233213 49 338 1.0 5.0 0.09 0.41 0.39 95 1009.1
20260505232503 49 0 0.0 0.0 0.12 0.41 0.39 95 1008.6
20260505232003 49 0 0.0 0.0 0.09 0.39 0.37 95 1008.5
20260505231503 49 0 0.0 0.0 0.10 0.39 0.37 95 1008.5
20260505231003 49 0 0.0 0.0 0.10 0.38 0.36 95 1008.6
20260505230503 49 338 1.0 4.0 0.10 0.37 0.35 95 1008.7
20260505230003 49 339 2.0 6.0 0.10 0.36 0.33 95 1008.8
20260505225505 49 339 2.0 6.0 0.10 0.34 0.32 95 1008.8
20260505225003 49 336 3.0 10.0 0.12 0.34 0.32 95 1008.9
20260505224503 49 333 3.0 10.0 0.10 0.33 0.31 95 1008.9
20260505224005 49 332 3.0 8.0 0.12 0.33 0.31 94 1009.0
20260505223503 49 333 3.0 8.0 0.13 0.32 0.30 94 1009.0
20260505223004 49 334 2.0 5.0 0.13 0.31 0.29 94 1009.0
20260505222713 49 334 2.0 5.0 0.14 0.31 0.29 94 1009.0
20260505222214 49 332 3.0 8.0 0.15 0.30 0.28 94 1008.9
20260505221503 49 332 4.0 12.0 0.17 0.29 0.26 93 1008.9
20260505221003 50 333 5.0 13.0 0.18 0.28 0.25 93 1008.9
20260505220713 50 329 6.0 15.0 0.18 0.28 0.25 93 1008.8
20260505220005 50 333 7.0 15.0 0.18 0.25 0.23 93 1008.7
20260505215503 50 337 7.0 17.0 0.18 0.24 0.22 93 1008.9
20260505215003 50 335 6.0 17.0 0.17 0.23 0.21 93 1009.0
20260505214503 50 336 6.0 14.0 0.17 0.23 0.21 93 1008.8
20260505214214 51 334 7.0 14.0 0.17 0.22 0.20 93 1008.9
20260505213503 51 335 6.0 15.0 0.15 0.20 0.17 93 1008.6
20260505213003 52 332 6.0 20.0 0.14 0.18 0.16 93 1008.4
20260505212505 53 326 7.0 20.0 0.13 0.17 0.15 93 1008.3
20260505212003 53 293 7.0 20.0 0.09 0.14 0.11 93 1008.5
20260505211503 54 242 7.0 18.0 0.07 0.12 0.09 92 1008.2
20260505211216 54 233 8.0 18.0 0.06 0.10 0.08 92 1008.0
20260505210503 54 228 8.0 19.0 0.03 0.08 0.06 91 1007.8
20260505210003 54 222 7.0 18.0 0.02 0.07 0.05 91 1007.6
20260505205503 54 219 7.0 19.0 0.01 0.06 0.03 90 1007.5
20260505205214 55 221 7.0 19.0 0.01 0.06 0.03 90 1007.5
20260505204505 55 227 6.0 18.0 0.01 0.06 0.03 89 1007.3
20260505204003 55 235 7.0 18.0 0.00 0.05 0.02 88 1007.2
20260505203505 56 233 7.0 18.0 0.00 0.05 0.02 88 1007.1
20260505203005 56 227 9.0 18.0 0.00 0.05 0.02 87 1006.9
20260505202503 56 225 9.0 18.0 0.00 0.05 0.02 86 1007.0
20260505202003 56 222 9.0 19.0 0.00 0.05 0.02 86 1007.0
20260505201505 56 224 9.0 20.0 0.00 0.05 0.02 86 1007.0
20260505201003 56 223 10.0 28.0 0.00 0.05 0.02 84 1007.1
20260505200712 56 222 11.0 28.0 0.00 0.05 0.02 83 1007.1
20260505200003 56 222 11.0 24.0 0.00 0.05 0.02 82 1007.2
20260505195504 57 221 11.0 23.0 0.00 0.05 0.02 81 1007.0
20260505195005 58 220 10.0 22.0 0.00 0.05 0.02 79 1006.7
20260505194503 58 223 10.0 26.0 0.00 0.05 0.02 78 1006.5
20260505194003 59 223 10.0 27.0 0.00 0.05 0.02 78 1006.4
20260505193503 60 226 12.0 27.0 0.00 0.05 0.02 77 1006.4
20260505193005 60 226 11.0 27.0 0.00 0.05 0.02 76 1006.4
20260505192503 61 223 11.0 27.0 0.00 0.05 0.02 74 1006.3
20260505192003 62 218 10.0 22.0 0.00 0.05 0.02 72 1006.0
20260505191503 63 223 11.0 24.0 0.00 0.05 0.02 71 1006.3
20260505191003 64 232 15.0 37.0 0.00 0.05 0.02 69 1006.1
20260505190503 65 241 18.0 42.0 0.00 0.05 0.02 68 1006.2
20260505190005 66 244 18.0 42.0 0.00 0.05 0.02 67 1006.2
20260505185503 66 244 18.0 44.0 0.00 0.05 0.02 66 1006.2
20260505185003 66 249 18.0 44.0 0.00 0.05 0.02 65 1006.0
20260505184503 67 252 17.0 37.0 0.00 0.05 0.02 65 1006.0
20260505184215 67 250 17.0 37.0 0.00 0.05 0.02 65 1005.8
20260505183503 67 240 18.0 35.0 0.00 0.05 0.02 65 1005.9
20260505183213 67 243 17.0 35.0 0.00 0.05 0.02 66 1005.7
20260505182503 66 256 18.0 35.0 0.00 0.05 0.02 66 1005.8
20260505182003 66 248 20.0 44.0 0.00 0.05 0.02 67 1005.6
20260505181504 66 249 20.0 44.0 0.00 0.05 0.02 67 1005.6
20260505181003 66 260 18.0 41.0 0.00 0.05 0.02 68 1005.8
20260505180503 66 260 15.0 37.0 0.00 0.05 0.02 68 1005.6
20260505180003 65 252 16.0 41.0 0.00 0.05 0.02 68 1005.4
20260505175503 65 246 17.0 41.0 0.00 0.05 0.02 69 1005.5
20260505175003 65 249 17.0 38.0 0.00 0.05 0.02 68 1005.5
20260505174503 66 246 18.0 35.0 0.00 0.05 0.02 68 1005.3
20260505174003 66 242 17.0 36.0 0.00 0.05 0.02 69 1005.6
20260505173503 66 255 19.0 42.0 0.00 0.05 0.02 69 1005.5
20260505173003 66 251 21.0 47.0 0.00 0.05 0.02 69 1005.5
20260505172503 66 246 21.0 52.0 0.00 0.05 0.02 69 1005.5
20260505172003 65 247 21.0 54.0 0.00 0.05 0.02 70 1005.6
20260505171503 65 246 16.0 54.0 0.00 0.05 0.02 69 1005.6
20260505171003 65 244 17.0 38.0 0.00 0.05 0.02 69 1005.6
20260505170505 65 243 22.0 44.0 0.00 0.05 0.02 68 1005.5
20260505170003 65 245 23.0 44.0 0.00 0.05 0.02 67 1005.5
20260505165503 66 244 20.0 44.0 0.00 0.05 0.02 67 1005.4
20260505165003 66 242 18.0 44.0 0.00 0.05 0.02 66 1005.5
20260505164503 66 234 18.0 37.0 0.00 0.05 0.02 67 1005.4
20260505164005 66 231 20.0 37.0 0.00 0.05 0.02 69 1005.5
20260505163503 65 234 19.0 35.0 0.00 0.05 0.02 68 1005.3
20260505163005 65 234 16.0 37.0 0.00 0.05 0.02 68 1005.0
20260505162504 65 229 15.0 38.0 0.00 0.05 0.02 68 1005.0
20260505162214 65 228 16.0 38.0 0.00 0.05 0.02 68 1004.9
20260505161503 64 229 17.0 35.0 0.00 0.05 0.02 69 1004.6
20260505161003 63 236 16.0 36.0 0.00 0.05 0.02 70 1004.9
20260505160713 63 237 16.0 36.0 0.00 0.05 0.02 70 1005.0
20260505153004 65 247 19.0 37.0 0.00 0.05 0.02 65 1004.9
20260505152504 65 244 18.0 38.0 0.00 0.05 0.02 65 1004.6
20260505152003 65 241 17.0 38.0 0.00 0.05 0.02 66 1004.2
20260505151713 65 240 16.0 32.0 0.00 0.05 0.02 67 1004.4
20260505151003 64 242 15.0 37.0 0.00 0.05 0.02 68 1004.3
20260505150503 64 244 14.0 27.0 0.00 0.05 0.02 69 1004.2
20260505140503 64 246 16.0 36.0 0.00 0.05 0.02 68 1003.8
20260505125003 67 231 10.0 32.0 0.00 0.05 0.02 66 1002.7
20260505124503 67 223 11.0 32.0 0.00 0.05 0.02 65 1002.6
20260505124003 67 223 13.0 32.0 0.00 0.05 0.02 66 1002.5
20260505123503 67 222 14.0 31.0 0.00 0.05 0.02 65 1002.5
20260505123215 67 223 15.0 31.0 0.00 0.05 0.02 65 1002.4
20260505122503 67 223 13.0 31.0 0.00 0.05 0.02 66 1002.5
20260505122003 66 227 13.0 27.0 0.00 0.05 0.02 66 1002.4
20260505121713 66 230 13.0 28.0 0.00 0.05 0.02 67 1002.4
20260505121003 66 223 14.0 31.0 0.00 0.05 0.02 67 1002.3
20260505120504 66 221 12.0 28.0 0.00 0.05 0.02 67 1002.1
20260505120005 66 223 11.0 26.0 0.00 0.05 0.02 67 1002.2
20260505115505 66 224 11.0 29.0 0.00 0.05 0.02 67 1002.1
20260505115005 66 217 11.0 29.0 0.00 0.05 0.02 68 1002.0
20260505114503 66 216 10.0 29.0 0.00 0.05 0.02 68 1002.0
20260505114006 66 218 10.0 29.0 0.00 0.05 0.02 68 1001.9
20260505113503 66 216 11.0 23.0 0.00 0.05 0.02 68 1002.0
20260505113005 66 218 11.0 23.0 0.00 0.05 0.02 69 1001.9
20260505112713 66 219 10.0 23.0 0.00 0.05 0.02 69 1001.8
20260505112004 65 218 10.0 23.0 0.00 0.05 0.02 69 1001.9
20260505111713 65 219 10.0 23.0 0.00 0.05 0.02 70 1001.9
20260505111003 65 217 9.0 19.0 0.00 0.05 0.02 70 1001.9
20260505110503 65 217 9.0 27.0 0.00 0.05 0.02 71 1001.6
20260505102003 63 205 9.0 22.0 0.00 0.05 0.02 76 1001.0
20260505101503 63 209 9.0 22.0 0.00 0.05 0.02 77 1001.0
20260505101003 62 205 8.0 18.0 0.00 0.05 0.02 78 1001.0
20260505100505 62 206 7.0 18.0 0.00 0.05 0.02 78 1000.9
20260505100003 61 200 8.0 15.0 0.00 0.05 0.02 79 1000.9
20260505095503 61 191 8.0 19.0 0.00 0.05 0.02 80 1000.9
20260505095003 61 192 7.0 19.0 0.00 0.05 0.02 81 1001.0
20260505094503 60 204 6.0 13.0 0.00 0.05 0.02 82 1000.9
20260505094003 60 192 6.0 13.0 0.00 0.05 0.02 83 1001.0
20260505093505 60 181 5.0 14.0 0.00 0.05 0.02 84 1000.9
20260505093004 60 198 6.0 14.0 0.00 0.05 0.02 84 1000.9
20260505092503 59 183 6.0 13.0 0.00 0.05 0.02 86 1001.0
20260505092003 59 166 6.0 13.0 0.00 0.05 0.02 87 1000.9
20260505091503 59 168 5.0 12.0 0.00 0.05 0.02 87 1000.8
20260505091003 58 180 5.0 13.0 0.00 0.05 0.02 87 1000.7
20260505090503 58 174 5.0 13.0 0.00 0.05 0.02 88 1000.8
20260505090004 58 168 5.0 13.0 0.00 0.05 0.02 88 1000.8
20260505085503 58 173 5.0 12.0 0.00 0.05 0.02 89 1000.7
20260505085003 58 186 6.0 12.0 0.00 0.05 0.02 89 1000.9
20260505084712 58 185 6.0 12.0 0.00 0.05 0.02 89 1000.8
20260505084003 58 178 6.0 13.0 0.00 0.05 0.02 90 1000.9
20260505083503 57 180 6.0 14.0 0.00 0.05 0.02 91 1001.0
20260505083213 57 176 7.0 14.0 0.00 0.05 0.02 91 1001.0
20260505082503 57 168 6.0 14.0 0.00 0.05 0.02 92 1001.0
20260505082003 56 163 6.0 13.0 0.00 0.05 0.02 93 1001.0
20260505081714 56 161 6.0 13.0 0.00 0.05 0.02 93 1001.0
20260505081003 56 163 7.0 12.0 0.00 0.05 0.02 93 1001.3
20260505080503 56 165 7.0 12.0 0.00 0.05 0.02 94 1001.3
20260505080003 56 165 6.0 13.0 0.00 0.05 0.02 94 1001.3
20260505075503 56 164 6.0 13.0 0.00 0.05 0.02 94 1001.3
20260505075003 55 161 6.0 13.0 0.00 0.05 0.02 94 1001.4
20260505074503 55 162 6.0 13.0 0.00 0.05 0.02 94 1001.4
20260505074005 55 166 5.0 12.0 0.00 0.05 0.02 94 1001.4
20260505073503 55 174 5.0 12.0 0.00 0.05 0.02 94 1001.5
20260505073003 55 173 5.0 12.0 0.00 0.05 0.02 94 1001.5
20260505072504 55 173 5.0 12.0 0.00 0.05 0.02 94 1001.5
20260505072213 55 172 5.0 12.0 0.00 0.05 0.02 94 1001.5
20260505071503 55 162 5.0 12.0 0.00 0.05 0.02 94 1001.8
20260505071003 55 164 6.0 13.0 0.00 0.05 0.02 93 1001.7
20260505070503 55 164 7.0 13.0 0.00 0.05 0.02 93 1002.0
20260505070003 55 169 6.0 13.0 0.00 0.05 0.02 93 1002.0
20260505065505 55 171 5.0 13.0 0.00 0.05 0.02 93 1002.2
20260505065004 55 176 5.0 15.0 0.01 0.05 0.02 93 1002.1
20260505064715 55 185 5.0 15.0 0.01 0.05 0.02 93 1002.2
20260505064003 55 233 7.0 18.0 0.02 0.05 0.02 93 1002.6
20260505063503 56 249 8.0 18.0 0.02 0.05 0.02 93 1003.0
20260505063003 56 242 7.0 18.0 0.02 0.05 0.02 92 1003.9
20260505062503 56 238 6.0 15.0 0.02 0.05 0.02 92 1002.9
20260505062003 55 243 6.0 15.0 0.02 0.05 0.02 91 1003.0
20260505061503 56 237 6.0 13.0 0.02 0.05 0.02 91 1003.1
20260505061003 56 220 7.0 13.0 0.02 0.05 0.02 90 1002.8
20260505060715 56 217 7.0 13.0 0.02 0.05 0.02 90 1003.1
20260505060003 56 220 10.0 22.0 0.02 0.05 0.02 89 1002.9
20260505055713 56 221 11.0 23.0 0.02 0.05 0.02 88 1003.2
20260505055003 57 225 14.0 32.0 0.01 0.03 0.01 84 1003.3
20260505054503 58 226 18.0 37.0 0.00 0.02 0.00 81 1003.4
20260505054005 60 225 18.0 37.0 0.00 0.02 0.00 78 1003.5
20260505053715 60 224 16.0 35.0 0.00 0.02 0.00 78 1003.3
20260505053003 60 223 10.0 27.0 0.00 0.02 0.00 77 1003.1